HDSN25 YSWG-YBTH

Flight info

Callsign HDSN25
Flight time N/A
Altitude 13000
Route WG DCT CWR
Aircraft B350/L-SBGRW/S

Departure

Time 2026-05-06 04:45
Airport Wagga Wagga Airport (YSWG)

Arrival

Time N/A
Airport Bathurst Airport (YBTH)
Time Latitude Longitude Altitude Speed Heading
2026-05-06 04:34 -35.16437 147.45469 698 ft 0 kts 99°
2026-05-06 04:38 -35.16441 147.45512 698 ft 6 kts 96°
2026-05-06 04:38 -35.16464 147.45568 700 ft 9 kts 124°
2026-05-06 04:39 -35.16508 147.45640 703 ft 12 kts 126°
2026-05-06 04:39 -35.16554 147.45721 707 ft 12 kts 125°
2026-05-06 04:39 -35.16598 147.45797 715 ft 11 kts 116°
2026-05-06 04:39 -35.16588 147.45882 714 ft 8 kts 60°
2026-05-06 04:40 -35.16566 147.45934 713 ft 5 kts 77°
2026-05-06 04:40 -35.16589 147.45962 715 ft 6 kts 157°
2026-05-06 04:40 -35.16616 147.45977 713 ft 1 kts 153°
2026-05-06 04:40 -35.16619 147.45979 714 ft 0 kts 153°
2026-05-06 04:44 -35.16626 147.45983 715 ft 4 kts 153°
2026-05-06 04:44 -35.16671 147.46012 716 ft 4 kts 152°
2026-05-06 04:44 -35.16691 147.46053 718 ft 8 kts 72°
2026-05-06 04:45 -35.16612 147.46233 721 ft 64 kts 62°
2026-05-06 04:45 -35.16265 147.47024 736 ft 137 kts 61°
2026-05-06 04:45 -35.15943 147.47766 949 ft 151 kts 62°
2026-05-06 04:45 -35.15226 147.49345 1572 ft 170 kts 57°
2026-05-06 04:46 -35.14672 147.50057 1976 ft 174 kts 25°
2026-05-06 04:46 -35.13475 147.50074 2423 ft 185 kts 332°
2026-05-06 04:46 -35.12416 147.49073 2472 ft 211 kts 311°
2026-05-06 04:46 -35.11493 147.47738 2480 ft 198 kts 306°
2026-05-06 04:47 -35.10683 147.46433 2486 ft 188 kts 304°
2026-05-06 04:47 -35.09941 147.45162 2488 ft 180 kts 303°
2026-05-06 04:47 -35.09224 147.43931 2481 ft 176 kts 303°
2026-05-06 04:47 -35.08528 147.42730 2483 ft 170 kts 298°
2026-05-06 04:48 -35.08289 147.41383 2490 ft 162 kts 262°
2026-05-06 04:48 -35.08458 147.40026 2487 ft 162 kts 260°
2026-05-06 04:48 -35.08686 147.38691 2483 ft 159 kts 244°
2026-05-06 04:48 -35.09486 147.37822 2497 ft 159 kts 199°
2026-05-06 04:49 -35.10572 147.37577 2492 ft 159 kts 192°
2026-05-06 04:49 -35.11667 147.37374 2489 ft 159 kts 191°
2026-05-06 04:49 -35.12755 147.37170 2492 ft 158 kts 191°
2026-05-06 04:49 -35.13847 147.36964 2488 ft 160 kts 191°
2026-05-06 04:50 -35.14945 147.36983 2492 ft 160 kts 163°
2026-05-06 04:50 -35.15950 147.37580 2477 ft 162 kts 148°
2026-05-06 04:50 -35.16629 147.38660 2488 ft 164 kts 116°
2026-05-06 04:50 -35.16767 147.40051 2917 ft 171 kts 73°
2026-05-06 04:51 -35.16036 147.41135 3736 ft 168 kts 28°
2026-05-06 04:51 -35.15012 147.41842 4480 ft 171 kts 35°
2026-05-06 04:51 -35.14055 147.42723 5233 ft 173 kts 38°
2026-05-06 04:51 -35.13095 147.43639 5957 ft 177 kts 38°
2026-05-06 04:52 -35.12113 147.44582 6661 ft 182 kts 38°
2026-05-06 04:52 -35.11114 147.45546 7337 ft 184 kts 38°
2026-05-06 04:52 -35.10097 147.46527 7950 ft 194 kts 38°
2026-05-06 04:52 -35.08939 147.47647 7995 ft 229 kts 38°
2026-05-06 04:53 -35.07620 147.48923 7998 ft 253 kts 38°
2026-05-06 04:53 -35.06191 147.50301 8001 ft 269 kts 38°
2026-05-06 04:53 -35.04693 147.51743 7995 ft 279 kts 38°
2026-05-06 04:53 -35.03150 147.53228 8004 ft 285 kts 38°
2026-05-06 04:54 -35.01602 147.54742 8142 ft 284 kts 39°
2026-05-06 04:54 -35.00093 147.56280 8353 ft 282 kts 40°
2026-05-06 04:54 -34.98614 147.57864 8468 ft 284 kts 43°
2026-05-06 04:54 -34.97173 147.59532 8543 ft 287 kts 45°
2026-05-06 04:55 -34.95808 147.61295 8700 ft 285 kts 49°
2026-05-06 04:55 -34.94292 147.62840 8749 ft 288 kts 27°
2026-05-06 04:55 -34.92474 147.63861 8857 ft 288 kts 24°
2026-05-06 04:55 -34.90735 147.65007 8973 ft 289 kts 33°
2026-05-06 04:56 -34.89152 147.66539 8979 ft 292 kts 42°
2026-05-06 04:56 -34.87519 147.68298 8983 ft 295 kts 40°
2026-05-06 04:57 -34.82575 147.72959 8990 ft 298 kts 39°
2026-05-06 04:57 -34.80950 147.74537 8986 ft 299 kts 38°
2026-05-06 04:57 -34.79308 147.76091 8990 ft 300 kts 38°
2026-05-06 04:57 -34.77666 147.77654 8996 ft 300 kts 39°
2026-05-06 04:58 -34.76047 147.79248 9019 ft 299 kts 40°
2026-05-06 04:58 -34.74473 147.80900 9040 ft 299 kts 43°
2026-05-06 04:58 -34.73026 147.82569 9016 ft 300 kts 46°